Volver al catálogo

STARLINK-11680

ActivoComunicacionesVLEO
NORAD 63554·PAYLOAD·🇺🇸 United States

Lanzado Apr 13, 2025 desde Cape Canaveral Space Force Station

Loading…

Próximos Pases (próximas 24 horas)

TLE

ActualizadoSource: CelesTrak SupGP

Época: Sep 15, 2026, 02:37 UTC

1 63554C 25075G   26258.10951389  .00052726  00000+0  40920-3 0  2588
2 63554  43.0005  92.2020 0001716 274.6190 229.7034 15.70830603    17

Sigue STARLINK-11680 en tiempo real con AllMySat

Download on the App Store